Regional Weather Roundup
Issued by NWS Wakefield, VA

Home | Current Version | Previous Version | Graphics & Text | Print | Product List | Glossary On
Versions: 1 2 3 4 5 6 7 8 9 10 11 12 13 14 15 16 17 18 19 20 21 22 23 24 25 26 27
000
ASUS41 KAKQ 041215
RWRAKQ

REGIONAL WEATHER ROUNDUP
NATIONAL WEATHER SERVICE WAKEFIELD VA
700 AM EST SUN DEC 04 2016

Note: "fair" indicates few or no clouds below 12,000 feet with no
significant weather and/or obstructions to visibility. * = Denotes
station may not report precipitation (e.g., rain,snow,etc.),
thunder or fog.

VAZ042-051-052>054-056-041300-
NORTHERN VIRGINIA

CITY           SKY/WX    TMP DP  RH WIND       PRES   REMARKS
WASH NATIONAL  CLOUDY    38  28  67 VRB5      30.29R
DULLES         CLOUDY    34  26  72 NW3       30.29R
FORT BELVOIR   CLOUDY    36  27  68 NW3       30.29R
QUANTICO       MOCLDY    36  27  69 NW3       30.31R
FREDERICKSBRG* CLOUDY    34  30  88 CALM      30.29R
STAFFORD*      CLOUDY    32  28  84 CALM      30.33S
WARRENTON      MOCLDY    29  25  84 CALM      30.28S
CULPEPER*      PTCLDY    30  28  91 CALM      30.30S
MANASSAS*      CLEAR     28  27  93 CALM      30.30R
LEESBURG*      CLOUDY    36  32  87 MISG      30.29S
WINCHESTER     CLOUDY    32  27  80 CALM      30.28R
FRONT ROYAL*   FAIR      32  28  86 S6        30.27S
LURAY*         FAIR      30  30 100 CALM      30.28R
$$

VAZ048-049-060>072-079>083-041300-
CENTRAL AND SOUTH CENTRAL VIRGINIA

CITY           SKY/WX    TMP DP  RH WIND       PRES   REMARKS
RICHMOND       NOT AVBL
CHESTERFIELD*  FAIR      37  16  41 CALM      30.29S
PETERSBURG*    CLOUDY    36  28  72 CALM      30.29F
HANOVER        MOCLDY    33  28  81 CALM      30.30S
TAPPAHANNOCK*  MOCLDY    33  29  87 CALM      30.29S
QUINTON*       FAIR      35  28  75 CALM      30.29S
CHARLOTTSVILLE CLOUDY    32  27  81 CALM      30.29S
GORDONSVILLE*  FAIR      31  29  92 CALM      30.28S
ORANGE*          N/A     34  30  86 CALM      30.29F
LOUISA*        CLOUDY    34  32  93 CALM      30.27S
BUMPASS*       FAIR      34  29  83 CALM      30.28S
FARMVILLE*     CLOUDY    36  32  86 CALM      30.27F
CREWE*         FAIR      36  29  76 CALM      30.27F
FORT PICKETT*  FAIR      36  25  65 N3        30.27F
CHASE CITY*    FAIR      37  27  68 CALM      30.28F
CLARKSVILLE*   FAIR      37  30  75 CALM      30.28S
SOUTH HILL*    MOCLDY    36  30  78 CALM      30.34S
LAWRENCEVILLE* FAIR      37  29  72 CALM      30.28S
EMPORIA*       CLOUDY    36  32  87 CALM      30.30S
$$

VAZ088>098-041300-
SOUTHEAST VIRGINIA

CITY           SKY/WX    TMP DP  RH WIND       PRES   REMARKS
NORFOLK        CLOUDY    44  36  73 N10       30.26S
VIRGINIA BEACH MOCLDY    39  34  82 N3        30.25S
NORFOLK NAVAL  CLOUDY    42  35  76 N8        30.29R
WEST POINT*    CLOUDY    34  30  86 CALM      30.31S
SALUDA*        FAIR      38  32  78 NW5       30.28R
NEWPORT NEWS   PTCLDY    37  31  78 N6        30.28R
LANGLEY AFB    CLOUDY    39  32  76 NW6       30.27R
FORT EUSTIS    CLOUDY    38  30  73 N6        30.26R
WILLIAMSBURG*  PTCLDY    37  30  75 CALM      30.29S
HR EXEC AP*    FAIR      34  30  86 CALM      30.27R
FRANKLIN*      PTCLDY    36  32  85 CALM      30.30R
US460-WAKEFLD  CLOUDY    37  30  75 N3        30.29R
$$

VAZ020-022-025-037-045-041300-
WEST CENTRAL AND SOUTHWEST VIRGINIA

CITY           SKY/WX    TMP DP  RH WIND       PRES   REMARKS
STAUNTON*      CLOUDY    28  27  94 CALM      30.29R
WAYNESBORO*    FAIR      28  26  91 CALM      30.26S
HOT SPRINGS VA CLOUDY    27  27 100 E3        30.13S
LYNCHBURG      CLOUDY    35  28  75 N3        30.29S
DANVILLE       CLOUDY    38  30  73 NE5       30.29S
SOUTH BOSTON*  PTSUNNY   36  34  90 CALM      30.29S
MARTINSVILLE   CLOUDY    37  28  70 CALM      30.31R
ROANOKE        CLOUDY    36  28  73 SE8       30.29R
BLACKSBURG     CLOUDY    33  28  81 E5        30.25R
DUBLIN*        CLOUDY    35  30  82 CALM      30.24R
MARION*        DRIZZLE   34  29  82 NE5       30.23R
HILLSVILLE*    CLOUDY    33  29  86 CALM      30.19R
RICHLANDS*     RAIN      33  30  90 CALM      30.16S
WISE*          LGT RAIN  39  36  87 S6        30.16F
ABINGDON*      LGT RAIN  37  35  90 E5        30.19F
$$

MDZ021>025-VAZ099-100-041300-
SOUTHERN MARYLAND AND THE DELMARVA PENINSULA

CITY           SKY/WX    TMP DP  RH WIND       PRES   REMARKS
PATUXENT RIVER CLOUDY    38  29  70 W7        30.28R
BAY BRIDGE APT PTCLDY    39  30  70 NW9       30.27S
LEONARDTOWN    CLOUDY    34  28  80 W5        30.29S
DOVER          CLOUDY    42  33  72 W8        30.25R
GEORGETOWN     MOCLDY    36  30  79 W3        30.27R
EASTON         PTCLDY    37  30  75 NW7       30.31R
CAMBRIDGE      PTCLDY    37  32  81 NW6       30.26S
SALISBURY      CLOUDY    35  30  82 NW3       30.27R
OCEAN CITY     CLOUDY    35  30  82 NW6       30.27R
WALLOPS ISLAND MOCLDY    37  33  85 NW6       30.28R
ACCOMACK*      PTCLDY    34  33  94 N3        30.26S
$$

NCZ012>017-030>032-041300-
NORTH CENTRAL AND EASTERN NORTH CAROLINA

CITY           SKY/WX    TMP DP  RH WIND       PRES   REMARKS
ROANOKE RAPIDS FAIR      37  32  81 NE5       30.29R
RALEIGH        CLOUDY    42  30  62 E7        30.29R
ELIZABETH CITY MOCLDY    42  35  76 NW7       30.27R
AHOSKIE*       CLOUDY    38  32  80 CALM      30.30R
EDENTON*       MOCLDY    40  36  84 CALM      30.29R
CURRITUCK*     MOCLDY    41  35  79 CALM      30.26F
KILL DEVIL HLS MOCLDY    47  38  71 N5        30.23S
MANTEO         MOCLDY    46  41  83 N7        30.25F
CAPE HATTERAS  CLOUDY    50  39  66 VRB6      30.25R
TARBORO*       NOT AVBL
GOLDSBORO      CLOUDY    43  35  73 NE7       30.26R
WASHINGTON     MOCLDY    40  35  81 CALM      30.28R
GREENVILLE     CLOUDY    39  36  87 CALM      30.29R
NEW BERN       CLOUDY    43  36  76 NE3       30.28R
WILMINGTON     CLOUDY    46  37  71 N3        30.27R
$$

VAZ048-041300-
ELSEWHERE

CITY           SKY/WX    TMP DP  RH WIND       PRES   REMARKS
HARRISBURG PA  CLOUDY    41  31  67 W5        30.25R
BALTIMORE      CLOUDY    36  29  75 W6        30.27S
ANNAPOLIS      PTCLDY    40  30  67 NW6       30.27S
ANDREWS AFB    CLOUDY    37  27  66 NW9       30.26S
PHILADELPHIA   CLOUDY    41  25  53 NW3       30.25R
HENDERSON NC   CLOUDY    36  27  70 CALM      30.28S
GREENSBORO     CLOUDY    40  29  64 CALM      30.27R
ROCKY MOUNT    CLOUDY    40  32  73 NE7       30.29R
$$

VAZ100-041300-
MARINE

STATION/POSITION TIME  TEMP    WIND        PRES    WAVE   SWELL
                       AIR SEA DIR/SP/G            HT/PER HT/PER
                 (UTC) (F)     (DEG/KT/KT) (MB)    (FT/S) (FT/S)
BRANDYWINE LGT   1136   43     330/  9/ 12   N/A
CAPE MAY NJ      1136   43 46  360/  5/  9 1023.8R
LEWES DE         1136   40 48  290/ 10/ 12 1024.3R
OCEAN-CITY-INLET 1136   38 48  320/  6/  7 1024.8R
WACHAPREAGUE VA  1142   39 47  360/  3/  5 1024.9R
THOMAS POINT MD  1200   39 49  310/ 12/ 13   N/A
GOOSES REEF MD   1150   42     350/ 14/ 17 1025.6R
COVE POINT MD    1142   40     340/  9/ 12 1025.6R
SOLOMONS ISLAND  1142   40 51  320/  8/ 11   N/A
BISHOPS HEAD MD  1142   40 43  320/  7/  9 1025.3R
PINEY POINT MD   1148          360/ 10/ 12   N/A
POTOMAC MD       1150   41     340/  8/ 10 1024.4S
CAMBRIDGE MD     1142   42 47  310/  8/ 12 1024.4R
LEWISETTA VA     1142   41 48  320/  7/  9 1025.0R
RAPPAHANNOCK LGT 1148          340/ 14/ 16 1025.3R
STINGRAY PT      1150   42     360/ 12/ 14 1025.3R
YORK RVR RNG VA  1142   42     350/ 13/ 15 1024.7R
YORKTOWN VA      1142   40 52  330/  9/ 12 1024.9R
JAMESTOWN VA     1150   37     350/  4/ 10   N/A
DOMINION TERM VA 1142   40      70/  1/  4 1025.0R
KIPTOPEKE VA     1148      50   20/  5/  6   N/A
CHES BAY BRIDGE  1142   45 53   10/ 12/ 13 1024.6S
CAPE HENRY VA    1142   45     360/ 12/ 15   N/A
WILLOUBY STN VA  1142   41     350/ 10/ 12 1025.7R
S CRANEY ISL VA  1142   43      10/ 10/ 11 1024.6S
CAPE HENRY BUOY  1142      56                N/A     3/ 5
1ST LANDING BUOY 1150   45                 1024.8F
CAPE CHARLES BUO 1156      55                N/A     3/ 4
OFFSHORE WE BUOY 1151      57                N/A     4/ 5
64NM E OF VA BCH 1150   49 60  360/ 14/ 17 1023.4R   5/ 7   3/ 7
DUCK PIER NC     1142   48 55   10/ 12/ 13 1023.5F
44100 DUCK FRF   1135      57                N/A     4/ 7
OREGON INLET NC  1142   48 53  360/  7/ 12 1024.1R
HATTERAS NC      1142   49 56  360/ 12/ 14 1024.0R
DIAMOND SHLS NC  1150   54 76   20/ 14/ 19 1023.7R   6/ 9   5/ 9
CAPE LOOKOUT NC  1100   49      10/  9/ 10 1024.1R
$$




USA.gov is the U.S. government's official web portal to all federal, state and local government web resources and services.